Temperature
17 17 17 17 16 16 16 16 16 15 15 15 14 14 14 14 14 14 14 14 14 14 14 13 13 13 13 13 13 13 13 13 12 12 12 12 12 12
16 16 17 16 16 16 16 16 16 16 15 15 14 14 14 14 14 13 13 13 13 13 13 13 13 13 13 13 12 12 12 12 12 12 12 12 11 11
16 16 16 16 16 16 16 16 16 15 15 14 14 14 14 13 13 13 13 13 13 13 13 13 13 12 12 12 12 12 11 11 11 11 11 11 11 11
16 16 16 16 16 16 16 15 15 15 15 14 14 13 13 13 13 13 13 13 13 12 12 12 12 12 12 12 11 11 11 11 11 11 11 11 10 10
16 16 16 16 15 15 15 15 15 15 14 14 14 13 13 13 13 13 12 12 12 12 12 12 12 11 11 11 11 11 11 10 10 10 10 10 10 10
15 15 15 15 15 15 15 15 15 14 14 14 13 13 13 13 13 12 12 12 12 12 12 12 11 11 11 11 11 10 10 10 10 10 9 9 9 9
15 15 15 15 15 14 14 14 14 14 14 13 13 13 13 12 12 12 12 12 12 11 11 11 11 11 11 10 10 10 10 10 10 9 9 9 9 9
15 15 14 14 14 14 14 14 14 14 14 13 13 13 13 12 12 12 12 12 11 11 11 11 11 11 10 10 10 10 10 10 9 9 9 9 9 8
14 14 14 14 14 14 14 13 14 13 13 13 13 13 12 12 12 12 12 12 12 11 11 11 11 10 10 10 10 10 10 9 9 9 9 8 8 8
14 14 14 13 13 13 13 13 13 13 13 13 13 12 12 12 12 12 12 11 11 11 11 11 10 10 10 10 10 10 9 9 9 9 8 8 8 8
14 14 13 13 13 13 13 13 13 13 12 12 12 12 12 12 12 11 11 11 11 11 11 11 10 10 10 10 10 9 9 9 9 8 8 8 8 8
14 13 13 13 13 13 13 12 12 12 12 12 12 12 12 12 11 11 11 11 11 10 10 10 10 10 10 10 10 9 9 9 9 8 8 8 8 8
13 13 13 13 13 12 12 12 12 12 12 12 12 11 11 11 11 11 11 11 11 10 10 10 10 10 10 9 9 9 9 9 9 9 8 8 8 7
13 13 13 13 13 12 12 12 12 12 12 11 11 11 11 11 11 11 11 11 11 11 10 10 10 10 10 9 9 9 9 9 9 9 8 8 8 7
13 13 12 12 12 12 12 12 12 12 11 11 11 11 11 11 11 11 11 11 10 10 10 10 10 10 10 9 9 9 9 9 9 9 8 8 8 8
12 12 12 12 12 12 12 12 11 11 11 11 11 11 11 11 11 11 10 10 10 10 10 10 10 10 9 9 9 9 9 9 9 9 8 8 8 8
12 12 12 12 12 12 12 11 11 11 11 11 11 11 11 11 10 10 10 10 10 10 10 10 10 10 9 9 9 9 9 9 9 9 8 8 8 8
12 12 12 12 12 12 11 11 11 11 11 11 11 11 11 10 10 10 10 10 10 10 10 10 9 9 9 9 9 9 9 9 9 8 8 8 8 8
12 12 11 11 11 11 11 11 11 11 11 11 10 10 10 10 10 10 10 10 10 10 10 9 9 9 9 9 9 9 9 9 8 8 8 8 8 8
11 11 11 11 11 11 11 11 11 11 10 10 10 10 10 10 10 10 10 10 10 10 9 9 9 9 9 9 9 9 9 9 8 8 8 8 8 8
11 11 11 11 11 11 11 10 10 10 10 10 10 10 10 9 9 9 9 9 9 9 9 9 9 9 9 9 8 9 9 9 8 8 8 8 7 7
11 11 11 11 11 10 10 10 10 10 10 10 9 9 9 9 9 9 9 9 9 9 9 9 9 9 9 8 8 8 8 9 8 8 8 8 7 7
11 11 11 10 10 10 10 10 10 10 10 9 9 9 9 9 9 9 9 9 9 9 9 9 9 8 8 8 8 8 8 8 8 8 8 8 8 7
Wind_Speed
1 1 1 2 1 1 1 2 2 2 1 2 2 2 6 8 8 7 7 9 9 9 9 9 9 9 9 9 9 9 8 8 7 7 7 7 6 7
1 1 1 2 2 1 1 1 1 2 1 1 2 3 5 7 8 8 7 8 9 9 9 8 8 9 9 9 9 8 8 8 8 8 7 8 8 7
1 1 1 1 1 2 1 0 1 2 3 2 2 3 4 5 6 7 8 8 7 8 8 8 8 8 8 9 8 8 7 8 8 8 8 8 8 7
1 1 2 1 1 1 1 1 1 2 3 4 2 3 4 5 5 5 7 7 8 9 9 9 9 9 9 8 8 8 8 8 8 7 7 7 7 7
1 1 1 2 1 1 1 1 1 2 3 4 4 3 3 4 4 3 5 5 7 8 8 8 9 9 9 9 8 8 8 8 7 7 7 7 6 6
1 1 2 2 2 1 1 1 1 2 3 4 4 3 3 3 3 3 3 2 3 6 7 8 10 9 8 8 7 7 7 7 7 7 7 7 6 6
1 2 3 4 5 3 2 2 2 2 2 3 4 3 2 2 2 3 3 3 2 3 4 6 8 7 7 6 6 6 7 7 7 6 6 6 6 5
1 2 3 4 5 5 6 5 4 2 2 2 2 3 3 2 2 3 3 3 2 3 3 4 6 5 7 8 8 9 8 7 7 7 6 6 5 4
1 1 1 3 3 2 3 4 5 4 3 2 2 2 2 2 2 2 2 2 2 3 3 2 3 4 6 9 12 11 10 9 8 8 7 6 5 4
2 2 2 3 2 2 2 3 3 3 2 2 2 1 2 2 2 2 2 2 2 1 2 2 2 3 4 9 13 13 12 11 10 9 9 8 7 6
2 2 2 3 3 3 2 2 2 2 3 5 5 5 4 3 1 0 1 2 2 2 2 1 1 2 2 4 10 14 14 13 12 11 10 9 8 8
3 3 4 3 2 2 1 2 2 1 1 3 3 3 3 4 4 2 1 1 1 2 2 2 2 2 2 2 6 11 12 12 13 13 12 11 10 7
2 2 2 3 2 1 1 1 2 1 2 2 3 3 3 2 3 3 2 1 1 1 2 2 1 1 1 1 3 6 9 8 10 10 13 14 13 10
1 2 3 4 3 2 1 1 0 1 1 1 2 2 2 2 2 2 2 2 2 2 2 2 1 2 1 1 2 3 5 7 7 7 8 11 13 14
2 3 4 4 3 2 4 3 2 2 2 2 2 2 2 3 3 3 3 2 1 2 4 4 2 2 2 3 2 2 2 3 5 5 5 6 6 7
2 3 4 4 3 3 3 4 4 3 2 2 2 2 2 2 3 3 3 3 2 2 3 5 5 3 3 3 2 3 3 3 4 4 4 4 6 8
2 2 3 3 3 3 3 3 3 3 3 3 2 2 2 2 2 2 2 2 3 3 3 3 5 6 5 4 3 3 3 2 3 4 4 4 4 6
3 3 3 4 4 3 3 3 3 3 2 2 2 2 2 2 2 1 2 3 3 3 3 3 3 2 3 3 5 4 3 3 3 3 3 3 4 3
3 4 4 4 4 3 3 3 3 3 2 2 2 2 2 2 2 2 2 3 3 3 3 3 3 3 4 4 4 6 4 4 3 3 3 3 4 4
5 5 5 4 4 4 3 3 2 2 2 2 2 2 3 3 3 3 3 3 3 3 3 3 3 3 4 4 3 4 9 6 4 4 4 3 2 2
6 5 5 4 3 3 2 2 2 2 2 2 3 3 3 3 3 3 3 4 4 3 4 4 4 5 3 2 2 3 3 9 8 4 4 3 3 3
5 4 4 3 2 2 2 2 2 2 3 3 3 3 3 3 3 3 3 3 4 4 4 3 3 3 3 3 4 4 4 4 8 10 9 8 4 4
4 4 3 3 3 3 3 3 3 2 3 3 3 3 3 3 2 3 4 4 4 4 4 3 3 3 3 4 4 4 4 4 3 4 5 11 14 13
Wind_Direction
304 299 288 300 309 264 186 179 171 175 179 136 116 100 106 107 108 104 100 110 116 116 113 111 107 103 99 97 93 91 86 83 85 84 83 84 88 84
358 26 339 317 322 313 222 194 173 166 169 150 139 144 128 119 121 119 116 114 115 120 120 119 115 109 104 100 96 93 89 86 88 87 84 86 87 87
12 18 346 337 343 344 359 88 141 136 148 143 123 126 125 131 137 140 133 123 115 127 131 129 124 119 114 108 102 98 96 94 94 95 94 93 91 90
10 360 360 6 1 4 33 72 102 129 150 149 146 151 151 152 161 164 142 131 123 133 139 140 135 128 121 115 111 106 104 101 100 99 98 96 96 95
21 27 30 19 10 41 67 89 130 135 132 148 155 155 160 165 161 152 129 134 137 141 141 145 143 136 130 125 122 120 117 114 112 109 107 103 99 98
63 55 49 43 33 25 85 81 112 121 142 149 148 155 158 164 151 159 149 155 150 155 146 146 146 142 140 138 136 134 131 129 126 122 118 114 111 109
94 85 85 79 68 58 80 78 94 114 143 145 149 150 154 162 181 190 170 171 168 150 152 162 159 160 162 163 164 161 154 151 149 146 139 133 126 121
87 95 123 108 97 83 78 80 93 126 135 134 153 162 164 171 181 193 169 173 185 170 169 176 167 169 177 178 180 178 175 172 169 164 160 157 155 153
62 54 79 93 99 92 100 101 81 81 103 135 159 166 155 161 165 183 189 193 196 172 164 183 170 174 174 179 179 179 181 182 183 182 183 187 193 202
90 69 71 91 69 65 100 103 99 72 77 117 119 107 119 125 156 192 190 160 156 157 152 185 185 177 158 166 180 183 187 191 194 197 199 204 212 223
109 89 88 96 58 64 107 113 110 115 95 100 107 112 119 133 133 142 180 187 203 183 160 179 182 167 158 167 188 192 196 201 206 209 211 215 222 232
122 111 91 102 100 73 149 146 137 135 124 129 132 149 169 184 198 206 214 228 215 184 164 172 194 175 182 183 181 194 205 213 216 220 222 224 227 230
155 143 125 126 119 136 186 158 162 205 225 189 167 171 178 183 199 209 223 236 237 217 162 159 209 214 186 197 193 190 195 202 209 222 226 228 228 223
105 113 127 141 132 143 148 136 293 283 230 204 180 180 181 186 200 204 212 224 195 184 175 163 196 206 219 247 233 201 198 199 195 202 209 220 228 231
83 109 144 163 156 178 200 221 239 247 234 222 205 203 199 194 186 191 186 186 219 218 190 185 199 215 219 238 236 208 206 216 197 196 205 208 215 220
169 161 178 200 233 244 213 219 227 233 234 239 227 216 204 192 190 190 190 189 215 229 206 204 207 206 232 254 239 237 214 207 203 200 201 215 220 218
165 181 192 199 211 218 219 220 221 215 228 245 247 232 213 197 201 203 193 207 225 221 203 208 216 220 229 235 246 246 236 227 211 197 200 223 225 216
177 217 219 212 217 219 219 220 222 219 216 234 244 240 235 230 227 215 210 225 234 239 226 208 208 219 248 261 235 235 240 237 225 208 205 219 235 213
206 227 229 224 221 227 228 223 216 199 201 233 253 256 254 249 241 237 240 240 241 246 242 223 213 211 233 257 255 223 227 232 225 218 216 220 226 216
221 230 233 225 221 227 226 221 212 196 199 226 241 249 252 254 252 244 243 241 239 244 250 236 218 211 226 245 254 247 228 221 225 225 227 233 220 202
225 231 237 233 223 212 208 210 215 213 205 223 243 245 245 248 247 250 253 240 233 242 247 246 235 224 223 232 254 256 239 222 222 219 217 222 238 228
226 233 236 240 245 230 224 227 227 224 214 221 239 249 249 251 258 264 265 258 243 243 247 242 225 215 217 233 251 253 253 231 223 230 225 219 210 219
228 230 222 225 235 237 230 229 228 226 234 230 231 248 258 258 260 266 267 264 262 255 247 242 236 235 242 241 251 263 265 250 234 219 232 234 229 233
Height
1542 1542 1542 1543 1543 1543 1544 1544 1545 1545 1547 1547 1547 1548 1547 1546 1546 1545 1545 1545 1545 1544 1545 1545 1545 1545 1545 1545 1545 1545 1546 1546 1546 1545 1545 1545 1545 1545
1540 1540 1540 1541 1541 1542 1542 1542 1542 1543 1544 1545 1545 1546 1546 1546 1545 1545 1545 1544 1544 1544 1544 1544 1544 1544 1544 1544 1544 1544 1544 1544 1544 1544 1544 1544 1543 1543
1539 1539 1539 1539 1539 1539 1540 1540 1540 1541 1541 1543 1544 1544 1545 1545 1544 1544 1544 1544 1543 1544 1544 1544 1544 1544 1544 1544 1544 1544 1544 1543 1543 1543 1543 1542 1542 1542
1538 1537 1537 1537 1538 1538 1538 1538 1538 1539 1540 1540 1541 1542 1543 1544 1544 1544 1544 1544 1544 1544 1544 1544 1544 1544 1543 1543 1543 1543 1543 1543 1542 1542 1542 1542 1541 1541
1536 1536 1536 1536 1536 1536 1536 1536 1537 1537 1538 1538 1539 1541 1542 1542 1543 1543 1544 1543 1543 1543 1543 1544 1543 1543 1543 1543 1543 1542 1542 1542 1542 1542 1541 1541 1540 1540
1535 1535 1535 1535 1535 1535 1535 1535 1536 1536 1537 1537 1538 1539 1540 1541 1541 1541 1542 1542 1542 1543 1543 1543 1543 1543 1542 1542 1542 1542 1542 1541 1541 1541 1540 1540 1540 1539
1534 1534 1534 1534 1534 1534 1534 1534 1534 1535 1535 1536 1536 1537 1537 1538 1539 1540 1541 1541 1542 1542 1542 1542 1542 1542 1542 1542 1542 1541 1541 1541 1540 1540 1540 1539 1539 1539
1533 1533 1533 1532 1532 1533 1533 1533 1534 1534 1534 1534 1535 1535 1536 1536 1537 1538 1539 1540 1540 1541 1541 1541 1541 1541 1541 1541 1540 1540 1540 1540 1539 1539 1539 1539 1538 1538
1531 1531 1532 1531 1531 1531 1531 1532 1532 1532 1533 1533 1533 1534 1534 1535 1535 1536 1537 1537 1538 1538 1539 1539 1539 1539 1539 1539 1539 1539 1539 1538 1538 1538 1538 1538 1537 1537
1530 1530 1530 1529 1529 1529 1530 1530 1530 1531 1531 1531 1532 1533 1533 1533 1534 1535 1535 1536 1536 1537 1537 1538 1538 1538 1538 1538 1538 1538 1538 1537 1537 1537 1536 1536 1536 1536
1528 1528 1528 1528 1527 1527 1528 1528 1528 1529 1530 1531 1531 1531 1532 1532 1533 1533 1533 1534 1534 1535 1535 1535 1536 1536 1537 1536 1536 1536 1536 1536 1536 1535 1535 1535 1534 1534
1526 1527 1527 1526 1525 1525 1525 1526 1526 1528 1528 1529 1529 1530 1530 1531 1531 1532 1532 1532 1532 1533 1533 1533 1534 1534 1534 1534 1534 1534 1534 1534 1534 1534 1533 1533 1533 1532
1525 1525 1525 1524 1523 1522 1523 1524 1525 1526 1527 1528 1528 1529 1529 1529 1530 1530 1530 1530 1530 1530 1531 1531 1531 1532 1532 1532 1532 1532 1532 1532 1532 1532 1531 1531 1531 1531
1524 1523 1523 1523 1522 1521 1522 1523 1524 1526 1526 1527 1527 1527 1528 1528 1528 1528 1528 1528 1528 1529 1528 1529 1529 1529 1530 1530 1530 1530 1530 1530 1530 1529 1529 1529 1529 1529
1522 1522 1523 1523 1522 1522 1522 1523 1524 1524 1525 1525 1526 1526 1526 1526 1526 1526 1526 1526 1526 1526 1526 1526 1527 1527 1527 1527 1527 1527 1527 1527 1527 1527 1527 1526 1526 1526
1521 1521 1522 1522 1522 1521 1521 1521 1522 1523 1523 1524 1524 1524 1524 1524 1524 1524 1523 1523 1524 1523 1524 1524 1524 1524 1524 1524 1524 1524 1524 1524 1524 1524 1524 1524 1523 1523
1518 1519 1519 1519 1519 1519 1519 1519 1519 1520 1520 1521 1522 1522 1522 1522 1522 1522 1521 1521 1521 1521 1521 1521 1521 1521 1521 1521 1521 1521 1521 1521 1521 1521 1521 1521 1520 1520
1516 1516 1516 1517 1517 1517 1517 1517 1517 1517 1518 1518 1519 1519 1519 1519 1519 1519 1519 1519 1519 1519 1518 1518 1518 1518 1518 1518 1518 1518 1518 1518 1518 1518 1518 1517 1517 1517
1512 1513 1513 1514 1514 1514 1514 1514 1514 1515 1515 1515 1516 1516 1516 1516 1516 1516 1516 1516 1516 1516 1516 1516 1515 1514 1514 1514 1514 1514 1514 1514 1514 1514 1514 1514 1513 1513
1509 1509 1510 1510 1511 1511 1511 1511 1511 1511 1511 1512 1512 1512 1513 1513 1513 1513 1513 1512 1512 1512 1512 1512 1512 1511 1511 1511 1510 1510 1510 1510 1510 1510 1510 1510 1509 1509
1505 1506 1506 1507 1507 1507 1507 1508 1508 1508 1508 1508 1508 1508 1509 1509 1509 1509 1509 1509 1508 1508 1508 1508 1507 1508 1507 1507 1506 1506 1506 1506 1506 1506 1505 1505 1505 1505
1502 1502 1502 1503 1503 1503 1503 1504 1504 1504 1504 1504 1504 1504 1505 1505 1505 1505 1505 1505 1504 1504 1504 1504 1503 1503 1503 1502 1502 1501 1501 1501 1501 1501 1501 1501 1500 1500
1497 1498 1498 1498 1499 1499 1499 1499 1499 1500 1500 1500 1500 1500 1500 1500 1500 1501 1501 1501 1500 1500 1500 1500 1499 1499 1498 1498 1498 1498 1497 1497 1496 1496 1496 1496 1496 1496